Location: Cahas Mountain Overlook
(37.0833°N, 80.1000°W)
Time: 21:14:26
(UTC-05:00)

ISS - Visible Passes

Search period start: 26 November 2022 00:00
Search period end: 06 December 2022 00:00
Orbit: 411 x 421 km, 51.6° (Epoch: 26 November)

Date Brightness Start Highest point End Pass type
(mag) Time Alt. Az. Time Alt. Az. Time Alt. Az.
01 Dec -1.4 18:06:01 10° N 18:06:51 11° NNE 18:07:01 11° NNE visible
02 Dec -1.4 18:52:30 10° NNW 18:53:24 16° NNW 18:53:24 16° NNW visible
03 Dec -2.2 18:04:04 10° NNW 18:06:31 19° NNE 18:07:02 18° NE visible
04 Dec -2.9 18:51:22 10° NW 18:53:46 44° NW 18:53:46 44° NW visible
05 Dec -3.4 18:02:40 10° NW 18:05:51 42° NE 18:07:50 19° E visible
05 Dec -0.4 19:40:06 10° W 19:40:47 13° W 19:40:47 13° W visible
